Location: Penton Mewsey
(51.2167°N, 1.5167°W)
Time: 03:38:44
(UTC+00:00)

Resurs 01 Rocket - Pass Details

Date: 30 March 2020
Orbit: 634 x 644 km, 98.0° (Epoch: 04 June)

Event Time Altitude Azimuth Distance (km) Brightness Sun altitude
Exits shadow 20:16:25 21° 154° (SSE) 1,441 3.0 -15.6°
Maximum altitude 20:19:21 74° 74° (ENE) 668 1.5 -16.0°
Drops below altitude 10° 20:23:47 10° 349° (N) 2,036 4.8 -16.7°
Sets 20:26:00 0° 348° (NNW) 2,950 5.7 -17.0°
